Other Public Products
Issued by NWS Grand Forks, ND

Home | Current Version | Previous Version | Graphics & Text | Print | Product List | Glossary On
Versions: 1 2 3 4 5 6 7 8 9 10 11 12 13 14 15 16 17 18 19 20 21 22 23 24 25 26 27 28 29 30 31 32 33 34 35 36 37 38 39 40 41 42 43 44 45 46 47 48 49 50
000
FPUS83 KFGF 191431
OPUFGF
PRAIRIE TO PINES WEATHER ROUNDUP
NATIONAL WEATHER SERVICE EASTERN NORTH DAKOTA/GRAND FORKS ND
800 AM CST FRI JAN 19 2018

 **SATELLITE DATA USED TO AUGMENT SKY COVER AT AUTOMATED STATIONS**
 *****  WEATHER ACROSS EASTERN NORTH DAKOTA  *****

CITY           SKY/WX    TMP DP  RH WIND       PRES   REMARKS
GRAND FORKS    CLOUDY    30  27  88 S6        29.41F WCI  24
GRND FORKS AFB MOCLDY    34  27  77 NW7       29.41F
GRND FORKS NWS   N/A     30 N/A N/A SW6         N/A  WCI  24
BUXTON           N/A     26  25  99 S6          N/A  WCI  19
DEVILS LAKE    FAIR      33  28  81 W13       29.46R WCI  24
FARGO          FAIR      27  23  85 S9        29.49S WCI  18
WAHPETON ARPT  FAIR      27  21  80 SE6       29.51F WCI  20
$$

 *****  WEATHER ACROSS CENTRAL AND WESTERN NORTH DAKOTA  *****

CITY           SKY/WX    TMP DP  RH WIND       PRES   REMARKS
JAMESTOWN      FAIR      30  25  81 W5        29.47S
BISMARCK       FAIR      22  20  92 W7        29.56R WCI  13
MINOT          CLOUDY    42  29  59 W17       29.48R
MINOT AFB      MOCLDY    38  30  72 W14       29.45R
GARRISON         N/A     35  29  78 NW13      29.52R
WILLISTON      MOCLDY    39  23  52 W13       29.57R
DICKINSON      FAIR      33  28  81 W12       29.55F WCI  24
HETTINGER      FAIR      30  25  81 W5        29.59S
$$

 *****  OTHER OBSERVATIONS NORTHEAST NORTH DAKOTA  *****

CITY           SKY/WX    TMP DP  RH WIND       PRES   REMARKS
WALHALLA       FAIR      41  32  70 CALM      29.35F
LANGDON        PTSUNNY   37  36  93 W23       29.38S
CAVALIER         N/A     41  32  70 SW7G13    29.37S
GRAFTON        FAIR      34  30  86 W13       29.41F WCI  25
CANDO          CLOUDY    37  34  87 W18       29.47R
FORT TOTTEN      N/A     35  28  76 W5        29.95S
ROLLA          CLOUDY    39  30  70 W22G30    29.40R
RUGBY          CLOUDY    37  32  81 W16       29.48R
 ***** THE ABOVE OBSERVATIONS ARE NON NWS ARE NOT QUALITY
        CONTROLLED AND MAY MIS-REPORT RAIN FOR SNOW...
$$

 *****  OTHER OBSERVATIONS SOUTHEAST NORTH DAKOTA *****

CITY           SKY/WX    TMP DP  RH WIND       PRES   REMARKS
COOPERSTOWN    FAIR      30  27  86 NW13      29.47R WCI  20
VALLEY CITY    FAIR      25  25 100 S7        29.50R WCI  17
OAKES            N/A     23  23 100 S8        29.50F WCI  14
GWINNER          N/A     27  25  93 SW10      29.50F WCI  17
SHEYENNE NWR     N/A     28  26  93 W6        29.95S WCI  22
BUFFALO          N/A     28  23  82 E12         N/A  WCI  17
WYNDMERE       NOT AVBL
 ***** THE ABOVE OBSERVATIONS ARE NON NWS ARE NOT QUALITY
       CONTROLLED AND MAY MIS-REPORT RAIN FOR SNOW...
$$

  *****  WEATHER ACROSS NORTHERN MINNESOTA  *****

CITY           SKY/WX    TMP DP  RH WIND       PRES   REMARKS
FLAG ISLAND    FAIR      32  27  80 SW6       29.29F
WARROAD        MOCLDY    36  30  80 SW12      29.34F
ROSEAU         CLOUDY    36  30  80 SW12      29.35F
HALLOCK        CLOUDY    30  28  93 SE9       29.37F WCI  22
THF RVR FALLS  FAIR      31  27  85 SW13      29.43F WCI  21
HALSTAD        NOT AVBL
FOSSTON        FAIR      27  23  86 S9        29.45S WCI  17
BAUDETTE       FAIR      35  28  75 SW10      29.34F
WASKISH        FAIR      36  28  75 SW8       29.40S
CROOKSTON      FAIR      27  25  93 S6        29.43F WCI  20
$$
  *****  WEATHER ACROSS CENTRAL AND WEST MINNESOTA  *****

CITY           SKY/WX    TMP DP  RH WIND       PRES   REMARKS
BEMIDJI        FAIR      33  26  75 CALM      29.42F
PARK RAPIDS    FAIR      29  23  78 CALM      29.46F
WADENA         FAIR      27  21  80 SW5       29.48F WCI  21
DETROIT LAKES  FAIR      32  27  80 CALM      29.49S
MOORHEAD       FAIR      25  21  86 S8        29.49F WCI  16
FERGUS FALLS   FAIR      30  25  80 S3        29.51R
ELBOW LAKE     FAIR      28  25  88 CALM      29.51S
MORRIS MN      FAIR      28  25  86 SE7       29.49F WCI  21
STAPLES        FAIR      25  21  86 CALM      29.50S
WHEATON        FAIR      27  23  86 N3        29.53S
$$
  *****  WEATHER ELSEWHERE ACROSS MINNESOTA  *****

CITY           SKY/WX    TMP DP  RH WIND       PRES   REMARKS
DULUTH         FAIR      30  25  81 SW12      29.48F WCI  20
INTRNTL FALLS  FAIR      32  25  75 SW8       29.38F WCI  25
ELY            FAIR      30  25  80 SW6       29.41F WCI  24
CLOQUET        FAIR      28  25  86 S8        29.49F WCI  20
BRAINERD       FAIR      29  24  82 S5        29.50F WCI  24
HIBBING        FAIR      26  23  88 CALM      29.45F
ALEXANDRIA     FAIR      34  25  69 S8        29.50F
SAINT CLOUD    FAIR      30  26  85 SE5       29.54F
MINNEAPOLIS    CLOUDY    29  25  85 SE6       29.60F WCI  23
$$

  *****  WEATHER ACROSS SOUTH DAKOTA  *****

CITY           SKY/WX    TMP DP  RH WIND       PRES   REMARKS
SIOUX FALLS    CLOUDY    33  28  81 S7        29.57F
BROOKINGS      FAIR      28  25  88 SW5       29.56S WCI  23
WATERTOWN      FAIR      28  25  88 SE5       29.52S WCI  23
HURON          FAIR      26  25  96 SE6       29.52F WCI  19
SISSETON         N/A     32  25  75 N5        29.49F
ABERDEEN       FAIR      23  22  96 CALM      29.53S
MITCHELL       FAIR      33  29  85 SW7       29.55F
PIERRE         FAIR      29  26  89 N3        29.53R
MOBRIDGE       FAIR      25  22  88 N6        29.51F WCI  18
RAPID CITY     FAIR      39  25  57 N25       29.58R
$$

  *****  SOME WEATHER IN NEARBY STATES *****

CITY           SKY/WX    TMP DP  RH WIND       PRES   REMARKS
GLASGOW MT     FAIR      36  28  73 W7        29.60S
GREAT FALLS MT MOCLDY    35  28  75 SW9       29.63S
CHEYENNE WY    FAIR      45  19  35 W14       29.80S
SCOTTSBLUFF NE FAIR      30  25  81 CALM      29.73S
OMAHA NE       MOCLDY    27  22  81 SE12      29.77S WCI  17
DES MOINES IA  MOCLDY    33  23  66 MISG      29.79F
DAVENPORT IA   FAIR      31  19  61 S16       29.88F WCI  20
CHICAGO IL     FAIR      29  18  63 SW16      29.89S WCI  17
EAU CLAIRE WI  FAIR      25  21  85 S7        29.63F WCI  17
LA CROSSE WI   FAIR      29  21  72 S13       29.72F WCI  19
$$

  *****  SOME NATIONAL WEATHER *****

CITY           SKY/WX    TMP DP  RH WIND       PRES   REMARKS
LA GUARDIA NY  PTSUNNY   32  12  43 W15G23    30.08R WCI  22
RALEIGH NC     FAIR      26  23  88 S3        30.24R
ATLANTA GA     FAIR      30  14  51 NW9       30.30R WCI  22
NEW ORLEANS LA PTSUNNY   34  30  85 CALM      30.40R
OKLAHOMA CITY  FAIR      27  19  72 S10       30.06F WCI  17
ALBUQUERQUE NM MOCLDY    26  10  50 CALM      30.15R
SALT LAKE CITY MOCLDY    57  29  34 S15G22    29.78R
LOS ANGELES CA CLOUDY    57  57 100 CALM      30.01R
BOISE ID       LGT RAIN  38  36  92 W7        29.85R
SEATTLE WA     CLOUDY    41  36  82 SE9       29.84S
$$

*** WEATHER ACROSS MANITOBA...SASKATCHEWAN AND ONTARIO ***
                ***ONTARIO***

CITY           SKY/WX    TMP DP  RH WIND       PRES   REMARKS
GERALDTON      CLOUDY    25  23  93 S6        29.37F WCI  18
THUNDER BAY    CLOUDY    25  25 100 CALM      29.40F
SIOUX LOOKOUT  CLOUDY    25  23  93 SW8       29.28S WCI  16
TORONTO        PTSUNNY   25  18  74 SW15G23   29.90S WCI  12
BIG TROUT LK   LGT SNOW   5   1  85 E7        29.32F VSB 3/4 WCI  -7
PICKLE LAKE    LGT SNOW  19  19 100 S6        29.22F FOG     WCI  11
DRYDEN         CLOUDY    27  25  93 SW10      29.29F WCI  17
KENORA         MOCLDY    27  23  86 S6        29.29F WCI  20
$$
                *** MANITOBA***

CITY           SKY/WX    TMP DP  RH WIND       PRES   REMARKS
BRANDON        CLOUDY    36  30  80 W21       29.35R
DAUPHIN        PTCLDY    36  32  87 W18       29.30R
ISLAND LAKE    CLOUDY    14  12  92 N6        29.25R WCI   5
PILOT MOUND      N/A     36  30  80 SW15        N/A
THE PAS        FLURRIES  10   7  85 N6        29.37R WCI   1
THOMPSON       LGT SNOW   3  -2  78 NE9       29.43  DRFTSNOWWCI -11
WINNIPEG       CLOUDY    37  30  75 W14       29.31S
LYNN LAKE      FLURRIES   1   0  92 E7        29.45R WCI -11
CHURCHILL      FLURRIES   3   0  85 E9        29.67S WCI -11
GILLAM         LGT SNOW   0  -4  85 NE10      29.48  WCI -17
$$
                ***SASKATCHEWAN***

CITY           SKY/WX    TMP DP  RH WIND       PRES   REMARKS
ESTEVAN        MOCLDY    34  28  80 W10       29.48R
KINDERSLEY     PTCLDY    21  16  79 W7G18     29.48S WCI  13
LLOYDMINSTER   PTCLDY    28  21  74 W14       29.38S WCI  17
PRINCE ALBERT  LGT SNOW  30  28  93 W9        29.35R WCI  22
REGINA         PTCLDY    25  21  86 W13       29.46S WCI  13
YORKTON        MOCLDY    32  28  86 W12       29.36R WC


USA.gov is the U.S. government's official web portal to all federal, state and local government web resources and services.